Year,Month,Day,Hour,Minute,Value (Times are PST for temperature in C)
2016,06,16,00,00,10.10
2016,06,16,00,01,10.10
2016,06,16,00,02,10.10
2016,06,16,00,03,10.20
2016,06,16,00,04,10.20
2016,06,16,00,05,10.20
2016,06,16,00,06,10.30
2016,06,16,00,07,10.30
2016,06,16,00,08,10.30
2016,06,16,00,09,10.30
2016,06,16,00,10,10.30
2016,06,16,00,11,10.30
2016,06,16,00,12,10.30
2016,06,16,00,13,10.30
2016,06,16,00,14,10.20
2016,06,16,00,15,10.20
2016,06,16,00,16,10.20
2016,06,16,00,17,10.10
2016,06,16,00,18,10.10
2016,06,16,00,19,10.10
2016,06,16,00,20,10.00
2016,06,16,00,21,9.90
2016,06,16,00,22,9.90
2016,06,16,00,23,9.90
2016,06,16,00,24,9.90
2016,06,16,00,25,9.80
2016,06,16,00,26,9.80
2016,06,16,00,27,9.80
2016,06,16,00,28,9.90
2016,06,16,00,29,9.90
2016,06,16,00,30,9.90
2016,06,16,00,31,9.90
2016,06,16,00,32,9.90
2016,06,16,00,33,9.90
2016,06,16,00,34,9.90
2016,06,16,00,35,9.80
2016,06,16,00,36,9.80
2016,06,16,00,37,9.80
2016,06,16,00,38,9.80
2016,06,16,00,39,9.80
2016,06,16,00,40,9.80
2016,06,16,00,41,9.80
2016,06,16,00,42,9.80
2016,06,16,00,43,9.80
2016,06,16,00,44,9.80
2016,06,16,00,45,9.80
2016,06,16,00,46,9.80
2016,06,16,00,47,9.80
2016,06,16,00,48,9.70
2016,06,16,00,49,9.70
2016,06,16,00,50,9.70
2016,06,16,00,51,9.70
2016,06,16,00,52,9.70
2016,06,16,00,53,9.70
2016,06,16,00,54,9.70
2016,06,16,00,55,9.70
2016,06,16,00,56,9.70
2016,06,16,00,57,9.70
2016,06,16,00,58,9.70
2016,06,16,00,59,9.70
2016,06,16,01,00,9.70
2016,06,16,01,01,9.60
2016,06,16,01,02,9.60
2016,06,16,01,03,9.60
2016,06,16,01,04,9.60
2016,06,16,01,05,9.60
2016,06,16,01,06,9.50
2016,06,16,01,07,9.50
2016,06,16,01,08,9.50
2016,06,16,01,09,9.50
2016,06,16,01,10,9.50
2016,06,16,01,11,9.50
2016,06,16,01,12,9.50
2016,06,16,01,13,9.40
2016,06,16,01,14,9.40
2016,06,16,01,15,9.40
2016,06,16,01,16,9.40
2016,06,16,01,17,9.40
2016,06,16,01,18,9.40
2016,06,16,01,19,9.30
2016,06,16,01,20,9.30
2016,06,16,01,21,9.30
2016,06,16,01,22,9.30
2016,06,16,01,23,9.30
2016,06,16,01,24,9.30
2016,06,16,01,25,9.30
2016,06,16,01,26,9.30
2016,06,16,01,27,9.30
2016,06,16,01,28,9.40
2016,06,16,01,29,9.40
2016,06,16,01,30,9.40
2016,06,16,01,31,9.40
2016,06,16,01,32,9.40
2016,06,16,01,33,9.40
2016,06,16,01,34,9.40
2016,06,16,01,35,9.40
2016,06,16,01,36,9.40
2016,06,16,01,37,9.30
2016,06,16,01,38,9.30
2016,06,16,01,39,9.30
2016,06,16,01,40,9.30
2016,06,16,01,41,9.30
2016,06,16,01,42,9.30
2016,06,16,01,43,9.30
2016,06,16,01,44,9.20
2016,06,16,01,45,9.20
2016,06,16,01,46,9.20
2016,06,16,01,47,9.20
2016,06,16,01,48,9.20
2016,06,16,01,49,9.10
2016,06,16,01,50,9.10
2016,06,16,01,51,9.00
2016,06,16,01,52,9.00
2016,06,16,01,53,9.00
2016,06,16,01,54,8.90
2016,06,16,01,55,8.90
2016,06,16,01,56,8.90
2016,06,16,01,57,8.90
2016,06,16,01,58,8.90
2016,06,16,01,59,8.90
2016,06,16,02,00,8.90
2016,06,16,02,01,8.90
2016,06,16,02,02,8.90
2016,06,16,02,03,8.90
2016,06,16,02,04,8.90
2016,06,16,02,05,8.90
2016,06,16,02,06,8.90
2016,06,16,02,07,8.90
2016,06,16,02,08,8.90
2016,06,16,02,09,8.90
2016,06,16,02,10,8.90
2016,06,16,02,11,8.90
2016,06,16,02,12,8.90
2016,06,16,02,13,8.90
2016,06,16,02,14,8.90
2016,06,16,02,15,8.90
2016,06,16,02,16,8.90
2016,06,16,02,17,8.80
2016,06,16,02,18,8.80
2016,06,16,02,19,8.80
2016,06,16,02,20,8.80
2016,06,16,02,21,8.80
2016,06,16,02,22,8.80
2016,06,16,02,23,8.80
2016,06,16,02,24,8.70
2016,06,16,02,25,8.70
2016,06,16,02,26,8.70
2016,06,16,02,27,8.70
2016,06,16,02,28,8.70
2016,06,16,02,29,8.70
2016,06,16,02,30,8.70
2016,06,16,02,31,8.60
2016,06,16,02,32,8.70
2016,06,16,02,33,8.70
2016,06,16,02,34,8.70
2016,06,16,02,35,8.80
2016,06,16,02,36,8.80
2016,06,16,02,37,8.80
2016,06,16,02,38,8.80
2016,06,16,02,39,8.90
2016,06,16,02,40,8.90
2016,06,16,02,41,8.90
2016,06,16,02,42,8.90
2016,06,16,02,43,8.90
2016,06,16,02,44,8.90
2016,06,16,02,45,8.90
2016,06,16,02,46,8.90
2016,06,16,02,47,8.90
2016,06,16,02,48,8.90
2016,06,16,02,49,8.80
2016,06,16,02,50,8.80
2016,06,16,02,51,8.80
2016,06,16,02,52,8.80
2016,06,16,02,53,8.80
2016,06,16,02,54,8.80
2016,06,16,02,55,8.80
2016,06,16,02,56,8.70
2016,06,16,02,57,8.70
2016,06,16,02,58,8.70
2016,06,16,02,59,8.70
2016,06,16,03,00,8.60
2016,06,16,03,01,8.60
2016,06,16,03,02,8.60
2016,06,16,03,03,8.60
2016,06,16,03,04,8.60
2016,06,16,03,05,8.60
2016,06,16,03,06,8.60
2016,06,16,03,07,8.50
2016,06,16,03,08,8.50
2016,06,16,03,09,8.50
2016,06,16,03,10,8.40
2016,06,16,03,11,8.40
2016,06,16,03,12,8.40
2016,06,16,03,13,8.40
2016,06,16,03,14,8.40
2016,06,16,03,15,8.40
2016,06,16,03,16,8.40
2016,06,16,03,17,8.40
2016,06,16,03,18,8.40
2016,06,16,03,19,8.40
2016,06,16,03,20,8.30
2016,06,16,03,21,8.30
2016,06,16,03,22,8.30
2016,06,16,03,23,8.30
2016,06,16,03,24,8.30
2016,06,16,03,25,8.30
2016,06,16,03,26,8.30
2016,06,16,03,27,8.20
2016,06,16,03,28,8.20
2016,06,16,03,29,8.20
2016,06,16,03,30,8.20
2016,06,16,03,31,8.20
2016,06,16,03,32,8.20
2016,06,16,03,33,8.20
2016,06,16,03,34,8.20
2016,06,16,03,35,8.20
2016,06,16,03,36,8.20
2016,06,16,03,37,8.20
2016,06,16,03,38,8.20
2016,06,16,03,39,8.20
2016,06,16,03,40,8.20
2016,06,16,03,41,8.20
2016,06,16,03,42,8.20
2016,06,16,03,43,8.20
2016,06,16,03,44,8.10
2016,06,16,03,45,8.10
2016,06,16,03,46,8.10
2016,06,16,03,47,8.10
2016,06,16,03,48,8.10
2016,06,16,03,49,8.00
2016,06,16,03,50,8.00
2016,06,16,03,51,8.00
2016,06,16,03,52,8.00
2016,06,16,03,53,7.90
2016,06,16,03,54,7.90
2016,06,16,03,55,7.90
2016,06,16,03,56,7.90
2016,06,16,03,57,7.90
2016,06,16,03,58,7.90
2016,06,16,03,59,7.90
2016,06,16,04,00,7.90
2016,06,16,04,01,7.90
2016,06,16,04,02,7.90
2016,06,16,04,03,7.90
2016,06,16,04,04,7.90
2016,06,16,04,05,7.90
2016,06,16,04,06,7.90
2016,06,16,04,07,7.90
2016,06,16,04,08,7.80
2016,06,16,04,09,7.80
2016,06,16,04,10,7.80
2016,06,16,04,11,7.80
2016,06,16,04,12,7.80
2016,06,16,04,13,7.80
2016,06,16,04,14,7.80
2016,06,16,04,15,7.80
2016,06,16,04,16,7.80
2016,06,16,04,17,7.80
2016,06,16,04,18,7.80
2016,06,16,04,19,7.80
2016,06,16,04,20,7.80
2016,06,16,04,21,7.80
2016,06,16,04,22,7.80
2016,06,16,04,23,7.70
2016,06,16,04,24,7.70
2016,06,16,04,25,7.70
2016,06,16,04,26,7.70
2016,06,16,04,27,7.60
2016,06,16,04,28,7.60
2016,06,16,04,29,7.60
2016,06,16,04,30,7.60
2016,06,16,04,31,7.60
2016,06,16,04,32,7.60
2016,06,16,04,33,7.60
2016,06,16,04,34,7.60
2016,06,16,04,35,7.60
2016,06,16,04,36,7.60
2016,06,16,04,37,7.60
2016,06,16,04,38,7.60
2016,06,16,04,39,7.60
2016,06,16,04,40,7.60
2016,06,16,04,41,7.60
2016,06,16,04,42,7.60
2016,06,16,04,43,7.60
2016,06,16,04,44,7.60
2016,06,16,04,45,7.60
2016,06,16,04,46,7.60
2016,06,16,04,47,7.60
2016,06,16,04,48,7.60
2016,06,16,04,49,7.60
2016,06,16,04,50,7.60
2016,06,16,04,51,7.60
2016,06,16,04,52,7.60
2016,06,16,04,53,7.60
2016,06,16,04,54,7.60
2016,06,16,04,55,7.60
2016,06,16,04,56,7.70
2016,06,16,04,57,7.70
2016,06,16,04,58,7.70
2016,06,16,04,59,7.80
2016,06,16,05,00,7.80
2016,06,16,05,01,7.80
2016,06,16,05,02,7.80
2016,06,16,05,03,7.80
2016,06,16,05,04,7.80
2016,06,16,05,05,7.80
2016,06,16,05,06,7.70
2016,06,16,05,07,7.70
2016,06,16,05,08,7.70
2016,06,16,05,09,7.70
2016,06,16,05,10,7.70
2016,06,16,05,11,7.60
2016,06,16,05,12,7.60
2016,06,16,05,13,7.60
2016,06,16,05,14,7.60
2016,06,16,05,15,7.60
2016,06,16,05,16,7.50
2016,06,16,05,17,7.50
2016,06,16,05,18,7.50
2016,06,16,05,19,7.50
2016,06,16,05,20,7.50
2016,06,16,05,21,7.50
2016,06,16,05,22,7.50
2016,06,16,05,23,7.50
2016,06,16,05,24,7.60
2016,06,16,05,25,7.60
2016,06,16,05,26,7.60
2016,06,16,05,27,7.60
2016,06,16,05,28,7.60
2016,06,16,05,29,7.60
2016,06,16,05,30,7.60
2016,06,16,05,31,7.60
2016,06,16,05,32,7.60
2016,06,16,05,33,7.60
2016,06,16,05,34,7.60
2016,06,16,05,35,7.60
2016,06,16,05,36,7.60
2016,06,16,05,37,7.60
2016,06,16,05,38,7.60
2016,06,16,05,39,7.60
2016,06,16,05,40,7.70
2016,06,16,05,41,7.70
2016,06,16,05,42,7.70
2016,06,16,05,43,7.70
2016,06,16,05,44,7.70
2016,06,16,05,45,7.70
2016,06,16,05,46,7.70
2016,06,16,05,47,7.70
2016,06,16,05,48,7.70
2016,06,16,05,49,7.80
2016,06,16,05,50,7.80
2016,06,16,05,51,7.80
2016,06,16,05,52,7.80
2016,06,16,05,53,7.80
2016,06,16,05,54,7.80
2016,06,16,05,55,7.80
2016,06,16,05,56,7.90
2016,06,16,05,57,7.90
2016,06,16,05,58,7.90
2016,06,16,05,59,7.90
2016,06,16,06,00,7.90
2016,06,16,06,01,8.00
2016,06,16,06,02,8.00
2016,06,16,06,03,8.00
2016,06,16,06,04,8.10
2016,06,16,06,05,8.10
2016,06,16,06,06,8.10
2016,06,16,06,07,8.10
2016,06,16,06,08,8.20
2016,06,16,06,09,8.20
2016,06,16,06,10,8.20
2016,06,16,06,11,8.20
2016,06,16,06,12,8.20
2016,06,16,06,13,8.20
2016,06,16,06,14,8.30
2016,06,16,06,15,8.30
2016,06,16,06,16,8.30
2016,06,16,06,17,8.40
2016,06,16,06,18,8.50
2016,06,16,06,19,8.50
2016,06,16,06,20,8.60
2016,06,16,06,21,8.70
2016,06,16,06,22,8.80
2016,06,16,06,23,8.80
2016,06,16,06,24,8.90
2016,06,16,06,25,9.00
2016,06,16,06,26,9.10
2016,06,16,06,27,9.10
2016,06,16,06,28,9.20
2016,06,16,06,29,9.20
2016,06,16,06,30,9.30
2016,06,16,06,31,9.40
2016,06,16,06,32,9.50
2016,06,16,06,33,9.60
2016,06,16,06,34,9.70
2016,06,16,06,35,9.80
2016,06,16,06,36,9.80
2016,06,16,06,37,9.90
2016,06,16,06,38,10.00
2016,06,16,06,39,10.10
2016,06,16,06,40,10.30
2016,06,16,06,41,10.40
2016,06,16,06,42,10.50
2016,06,16,06,43,10.60
2016,06,16,06,44,10.70
2016,06,16,06,45,10.80
2016,06,16,06,46,10.90
2016,06,16,06,47,10.90
2016,06,16,06,48,10.90
2016,06,16,06,49,10.90
2016,06,16,06,50,10.80
2016,06,16,06,51,10.80
2016,06,16,06,52,10.80
2016,06,16,06,53,10.80
2016,06,16,06,54,10.80
2016,06,16,06,55,10.80
2016,06,16,06,56,10.80
2016,06,16,06,57,10.80
2016,06,16,06,58,10.80
2016,06,16,06,59,10.80
2016,06,16,07,00,10.80
2016,06,16,07,01,10.80
2016,06,16,07,02,10.80
2016,06,16,07,03,10.80
2016,06,16,07,04,10.80
2016,06,16,07,05,10.80
2016,06,16,07,06,10.70
2016,06,16,07,07,10.70
2016,06,16,07,08,10.70
2016,06,16,07,09,10.70
2016,06,16,07,10,10.70
2016,06,16,07,11,10.70
2016,06,16,07,12,10.70
2016,06,16,07,13,10.70
2016,06,16,07,14,10.70
2016,06,16,07,15,10.70
2016,06,16,07,16,10.70
2016,06,16,07,17,10.70
2016,06,16,07,18,10.70
2016,06,16,07,19,10.70
2016,06,16,07,20,10.70
2016,06,16,07,21,10.70
2016,06,16,07,22,10.70
2016,06,16,07,23,10.70
2016,06,16,07,24,10.70
2016,06,16,07,25,10.70
2016,06,16,07,26,10.70
2016,06,16,07,27,10.70
2016,06,16,07,28,10.70
2016,06,16,07,29,10.70
2016,06,16,07,30,10.70
2016,06,16,07,31,10.70
2016,06,16,07,32,10.80
2016,06,16,07,33,10.80
2016,06,16,07,34,10.80
2016,06,16,07,35,10.80
2016,06,16,07,36,10.80
2016,06,16,07,37,10.80
2016,06,16,07,38,10.80
2016,06,16,07,39,10.80
2016,06,16,07,40,10.80
2016,06,16,07,41,10.80
2016,06,16,07,42,10.80
2016,06,16,07,43,10.80
2016,06,16,07,44,10.90
2016,06,16,07,45,10.80
2016,06,16,07,46,10.80
2016,06,16,07,47,10.80
2016,06,16,07,48,10.80
2016,06,16,07,49,10.80
2016,06,16,07,50,10.80
2016,06,16,07,51,10.80
2016,06,16,07,52,10.80
2016,06,16,07,53,10.80
2016,06,16,07,54,10.80
2016,06,16,07,55,10.70
2016,06,16,07,56,10.80
2016,06,16,07,57,10.80
2016,06,16,07,58,10.80
2016,06,16,07,59,10.80
2016,06,16,08,00,10.80
2016,06,16,08,01,10.80
2016,06,16,08,02,10.80
2016,06,16,08,03,10.80
2016,06,16,08,04,10.80
2016,06,16,08,05,10.80
2016,06,16,08,06,10.80
2016,06,16,08,07,10.80
2016,06,16,08,08,10.80
2016,06,16,08,09,10.80
2016,06,16,08,10,10.80
2016,06,16,08,11,10.80
2016,06,16,08,12,10.80
2016,06,16,08,13,10.90
2016,06,16,08,14,10.90
2016,06,16,08,15,10.90
2016,06,16,08,16,10.90
2016,06,16,08,17,10.90
2016,06,16,08,18,10.90
2016,06,16,08,19,10.90
2016,06,16,08,20,10.90
2016,06,16,08,21,10.90
2016,06,16,08,22,11.00
2016,06,16,08,23,11.00
2016,06,16,08,24,11.00
2016,06,16,08,25,11.10
2016,06,16,08,26,11.10
2016,06,16,08,27,11.10
2016,06,16,08,28,11.20
2016,06,16,08,29,11.20
2016,06,16,08,30,11.20
2016,06,16,08,31,11.30
2016,06,16,08,32,11.30
2016,06,16,08,33,11.30
2016,06,16,08,34,11.30
2016,06,16,08,35,11.40
2016,06,16,08,36,11.40
2016,06,16,08,37,11.50
2016,06,16,08,38,11.60
2016,06,16,08,39,11.60
2016,06,16,08,40,11.70
2016,06,16,08,41,11.80
2016,06,16,08,42,11.90
2016,06,16,08,43,11.90
2016,06,16,08,44,12.00
2016,06,16,08,45,12.10
2016,06,16,08,46,12.20
2016,06,16,08,47,12.30
2016,06,16,08,48,12.40
2016,06,16,08,49,12.60
2016,06,16,08,50,12.80
2016,06,16,08,51,13.00
2016,06,16,08,52,13.10
2016,06,16,08,53,13.20
2016,06,16,08,54,13.40
2016,06,16,08,55,13.50
2016,06,16,08,56,13.60
2016,06,16,08,57,13.70
2016,06,16,08,58,13.70
2016,06,16,08,59,13.60
2016,06,16,09,00,13.60
2016,06,16,09,01,13.50
2016,06,16,09,02,13.40
2016,06,16,09,03,13.30
2016,06,16,09,04,13.20
2016,06,16,09,05,13.20
2016,06,16,09,06,13.10
2016,06,16,09,07,13.10
2016,06,16,09,08,13.00
2016,06,16,09,09,13.00
2016,06,16,09,10,12.90
2016,06,16,09,11,12.90
2016,06,16,09,12,12.90
2016,06,16,09,13,12.90
2016,06,16,09,14,13.00
2016,06,16,09,15,13.10
2016,06,16,09,16,13.10
2016,06,16,09,17,13.10
2016,06,16,09,18,13.00
2016,06,16,09,19,13.00
2016,06,16,09,20,13.00
2016,06,16,09,21,13.10
2016,06,16,09,22,13.10
2016,06,16,09,23,13.10
2016,06,16,09,24,13.10
2016,06,16,09,25,13.10
2016,06,16,09,26,13.10
2016,06,16,09,27,13.10
2016,06,16,09,28,13.00
2016,06,16,09,29,13.00
2016,06,16,09,30,12.90
2016,06,16,09,31,12.90
2016,06,16,09,32,12.90
2016,06,16,09,33,12.90
2016,06,16,09,34,12.80
2016,06,16,09,35,12.80
2016,06,16,09,36,12.90
2016,06,16,09,37,13.00
2016,06,16,09,38,13.10
2016,06,16,09,39,13.10
2016,06,16,09,40,13.20
2016,06,16,09,41,13.30
2016,06,16,09,42,13.30
2016,06,16,09,43,13.30
2016,06,16,09,44,13.30
2016,06,16,09,45,13.40
2016,06,16,09,46,13.40
2016,06,16,09,47,13.40
2016,06,16,09,48,13.40
2016,06,16,09,49,13.40
2016,06,16,09,50,13.40
2016,06,16,09,51,13.40
2016,06,16,09,52,13.40
2016,06,16,09,53,13.40
2016,06,16,09,54,13.50
2016,06,16,09,55,13.50
2016,06,16,09,56,13.50
2016,06,16,09,57,13.60
2016,06,16,09,58,13.60
2016,06,16,09,59,13.50
2016,06,16,10,00,13.50
2016,06,16,10,01,13.60
2016,06,16,10,02,13.70
2016,06,16,10,03,13.70
2016,06,16,10,04,13.80
2016,06,16,10,05,13.90
2016,06,16,10,06,13.80
2016,06,16,10,07,13.80
2016,06,16,10,08,13.80
2016,06,16,10,09,13.80
2016,06,16,10,10,13.80
2016,06,16,10,11,13.80
2016,06,16,10,12,13.90
2016,06,16,10,13,13.90
2016,06,16,10,14,14.00
2016,06,16,10,15,14.10
2016,06,16,10,16,14.20
2016,06,16,10,17,14.30
2016,06,16,10,18,14.40
2016,06,16,10,19,14.50
2016,06,16,10,20,14.50
2016,06,16,10,21,14.60
2016,06,16,10,22,14.60
2016,06,16,10,23,14.60
2016,06,16,10,24,14.60
2016,06,16,10,25,14.60
2016,06,16,10,26,14.50
2016,06,16,10,27,14.50
2016,06,16,10,28,14.40
2016,06,16,10,29,14.40
2016,06,16,10,30,14.40
2016,06,16,10,31,14.30
2016,06,16,10,32,14.20
2016,06,16,10,33,14.20
2016,06,16,10,34,14.10
2016,06,16,10,35,14.10
2016,06,16,10,36,14.10
2016,06,16,10,37,14.00
2016,06,16,10,38,14.00
2016,06,16,10,39,14.10
2016,06,16,10,40,14.00
2016,06,16,10,41,14.10
2016,06,16,10,42,14.10
2016,06,16,10,43,14.10
2016,06,16,10,44,14.20
2016,06,16,10,45,14.30
2016,06,16,10,46,14.40
2016,06,16,10,47,14.40
2016,06,16,10,48,14.50
2016,06,16,10,49,14.50
2016,06,16,10,50,14.50
2016,06,16,10,51,14.60
2016,06,16,10,52,14.70
2016,06,16,10,53,14.70
2016,06,16,10,54,14.70
2016,06,16,10,55,14.70
2016,06,16,10,56,14.70
2016,06,16,10,57,14.80
2016,06,16,10,58,14.80
2016,06,16,10,59,14.80
2016,06,16,11,00,14.80
2016,06,16,11,01,14.70
2016,06,16,11,02,14.60
2016,06,16,11,03,14.60
2016,06,16,11,04,14.50
2016,06,16,11,05,14.40
2016,06,16,11,06,14.50
2016,06,16,11,07,14.60
2016,06,16,11,08,14.70
2016,06,16,11,09,14.80
2016,06,16,11,10,14.90
2016,06,16,11,11,15.10
2016,06,16,11,12,15.20
2016,06,16,11,13,15.10
2016,06,16,11,14,15.10
2016,06,16,11,15,15.00
2016,06,16,11,16,14.90
2016,06,16,11,17,14.80
2016,06,16,11,18,14.90
2016,06,16,11,19,14.90
2016,06,16,11,20,14.90
2016,06,16,11,21,14.90
2016,06,16,11,22,14.80
2016,06,16,11,23,14.80
2016,06,16,11,24,14.80
2016,06,16,11,25,14.80
2016,06,16,11,26,14.70
2016,06,16,11,27,14.70
2016,06,16,11,28,14.60
2016,06,16,11,29,14.60
2016,06,16,11,30,14.70
2016,06,16,11,31,14.70
2016,06,16,11,32,14.80
2016,06,16,11,33,14.80
2016,06,16,11,34,14.80
2016,06,16,11,35,14.80
2016,06,16,11,36,14.80
2016,06,16,11,37,14.80
2016,06,16,11,38,14.80
2016,06,16,11,39,14.80
2016,06,16,11,40,14.80
2016,06,16,11,41,14.90
2016,06,16,11,42,14.90
2016,06,16,11,43,14.80
2016,06,16,11,44,14.70
2016,06,16,11,45,14.60
2016,06,16,11,46,14.50
2016,06,16,11,47,14.40
2016,06,16,11,48,14.40
2016,06,16,11,49,14.30
2016,06,16,11,50,14.30
2016,06,16,11,51,14.30
2016,06,16,11,52,14.30
2016,06,16,11,53,14.20
2016,06,16,11,54,14.20
2016,06,16,11,55,14.30
2016,06,16,11,56,14.40
2016,06,16,11,57,14.40
2016,06,16,11,58,14.40
2016,06,16,11,59,14.50
2016,06,16,12,00,14.60
2016,06,16,12,01,14.80
2016,06,16,12,02,14.90
2016,06,16,12,03,15.00
2016,06,16,12,04,15.10
2016,06,16,12,05,15.10
2016,06,16,12,06,15.00
2016,06,16,12,07,15.00
2016,06,16,12,08,15.00
2016,06,16,12,09,15.00
2016,06,16,12,10,15.10
2016,06,16,12,11,15.10
2016,06,16,12,12,15.10
2016,06,16,12,13,15.00
2016,06,16,12,14,15.10
2016,06,16,12,15,15.10
2016,06,16,12,16,15.20
2016,06,16,12,17,15.30
2016,06,16,12,18,15.30
2016,06,16,12,19,15.40
2016,06,16,12,20,15.40
2016,06,16,12,21,15.30
2016,06,16,12,22,15.30
2016,06,16,12,23,15.20
2016,06,16,12,24,15.10
2016,06,16,12,25,15.00
2016,06,16,12,26,15.00
2016,06,16,12,27,15.00
2016,06,16,12,28,15.00
2016,06,16,12,29,15.00
2016,06,16,12,30,14.90
2016,06,16,12,31,14.80
2016,06,16,12,32,14.70
2016,06,16,12,33,14.70
2016,06,16,12,34,14.60
2016,06,16,12,35,14.40
2016,06,16,12,36,14.40
2016,06,16,12,37,14.30
2016,06,16,12,38,14.30
2016,06,16,12,39,14.30
2016,06,16,12,40,14.20
2016,06,16,12,41,14.10
2016,06,16,12,42,14.10
2016,06,16,12,43,14.10
2016,06,16,12,44,14.10
2016,06,16,12,45,14.10
2016,06,16,12,46,14.00
2016,06,16,12,47,14.00
2016,06,16,12,48,14.00
2016,06,16,12,49,14.00
2016,06,16,12,50,14.10
2016,06,16,12,51,14.10
2016,06,16,12,52,14.20
2016,06,16,12,53,14.40
2016,06,16,12,54,14.40
2016,06,16,12,55,14.40
2016,06,16,12,56,14.40
2016,06,16,12,57,14.40
2016,06,16,12,58,14.50
2016,06,16,12,59,14.50
2016,06,16,13,00,14.60
2016,06,16,13,01,14.60
2016,06,16,13,02,14.60
2016,06,16,13,03,14.60
2016,06,16,13,04,14.70
2016,06,16,13,05,14.60
2016,06,16,13,06,14.60
2016,06,16,13,07,14.50
2016,06,16,13,08,14.40
2016,06,16,13,09,14.40
2016,06,16,13,10,14.50
2016,06,16,13,11,14.50
2016,06,16,13,12,14.50
2016,06,16,13,13,14.60
2016,06,16,13,14,14.60
2016,06,16,13,15,14.60
2016,06,16,13,16,14.60
2016,06,16,13,17,14.70
2016,06,16,13,18,14.70
2016,06,16,13,19,14.70
2016,06,16,13,20,14.70
2016,06,16,13,21,14.70
2016,06,16,13,22,14.70
2016,06,16,13,23,14.70
2016,06,16,13,24,14.60
2016,06,16,13,25,14.70
2016,06,16,13,26,14.70
2016,06,16,13,27,14.90
2016,06,16,13,28,15.00
2016,06,16,13,29,15.10
2016,06,16,13,30,15.20
2016,06,16,13,31,15.30
2016,06,16,13,32,15.30
2016,06,16,13,33,15.20
2016,06,16,13,34,15.30
2016,06,16,13,35,15.30
2016,06,16,13,36,15.30
2016,06,16,13,37,15.30
2016,06,16,13,38,15.30
2016,06,16,13,39,15.30
2016,06,16,13,40,15.30
2016,06,16,13,41,15.30
2016,06,16,13,42,15.40
2016,06,16,13,43,15.40
2016,06,16,13,44,15.30
2016,06,16,13,45,15.30
2016,06,16,13,46,15.20
2016,06,16,13,47,15.20
2016,06,16,13,48,15.20
2016,06,16,13,49,15.10
2016,06,16,13,50,15.00
2016,06,16,13,51,14.90
2016,06,16,13,52,14.70
2016,06,16,13,53,14.60
2016,06,16,13,54,14.60
2016,06,16,13,55,14.60
2016,06,16,13,56,14.60
2016,06,16,13,57,14.60
2016,06,16,13,58,14.70
2016,06,16,13,59,14.70
2016,06,16,14,00,14.70
2016,06,16,14,01,14.70
2016,06,16,14,02,14.70
2016,06,16,14,03,14.70
2016,06,16,14,04,14.60
2016,06,16,14,05,14.60
2016,06,16,14,06,14.50
2016,06,16,14,07,14.40
2016,06,16,14,08,14.30
2016,06,16,14,09,14.30
2016,06,16,14,10,14.30
2016,06,16,14,11,14.30
2016,06,16,14,12,14.30
2016,06,16,14,13,14.10
2016,06,16,14,14,13.90
2016,06,16,14,15,13.70
2016,06,16,14,16,13.70
2016,06,16,14,17,13.70
2016,06,16,14,18,13.80
2016,06,16,14,19,13.80
2016,06,16,14,20,13.90
2016,06,16,14,21,13.90
2016,06,16,14,22,14.00
2016,06,16,14,23,14.10
2016,06,16,14,24,14.10
2016,06,16,14,25,14.10
2016,06,16,14,26,14.10
2016,06,16,14,27,14.20
2016,06,16,14,28,14.30
2016,06,16,14,29,14.40
2016,06,16,14,30,14.40
2016,06,16,14,31,14.50
2016,06,16,14,32,14.60
2016,06,16,14,33,14.70
2016,06,16,14,34,14.80
2016,06,16,14,35,14.80
2016,06,16,14,36,14.90
2016,06,16,14,37,14.90
2016,06,16,14,38,14.90
2016,06,16,14,39,14.90
2016,06,16,14,40,14.90
2016,06,16,14,41,14.90
2016,06,16,14,42,15.00
2016,06,16,14,43,14.90
2016,06,16,14,44,14.90
2016,06,16,14,45,14.90
2016,06,16,14,46,14.90
2016,06,16,14,47,14.90
2016,06,16,14,48,15.00
2016,06,16,14,49,15.10
2016,06,16,14,50,15.20
2016,06,16,14,51,15.20
2016,06,16,14,52,15.30
2016,06,16,14,53,15.30
2016,06,16,14,54,15.40
2016,06,16,14,55,15.40
2016,06,16,14,56,15.40
2016,06,16,14,57,15.40
2016,06,16,14,58,15.50
2016,06,16,14,59,15.60
2016,06,16,15,00,15.70
2016,06,16,15,01,15.90
2016,06,16,15,02,16.10
2016,06,16,15,03,16.30
2016,06,16,15,04,16.40
2016,06,16,15,05,16.60
2016,06,16,15,06,16.80
2016,06,16,15,07,16.90
2016,06,16,15,08,17.10
2016,06,16,15,09,17.20
2016,06,16,15,10,17.20
2016,06,16,15,11,17.30
2016,06,16,15,12,17.30
2016,06,16,15,13,17.30
2016,06,16,15,14,17.40
2016,06,16,15,15,17.40
2016,06,16,15,16,17.40
2016,06,16,15,17,17.40
2016,06,16,15,18,17.40
2016,06,16,15,19,17.40
2016,06,16,15,20,17.40
2016,06,16,15,21,17.40
2016,06,16,15,22,17.40
2016,06,16,15,23,17.30
2016,06,16,15,24,17.30
2016,06,16,15,25,17.20
2016,06,16,15,26,17.20
2016,06,16,15,27,17.20
2016,06,16,15,28,17.10
2016,06,16,15,29,17.00
2016,06,16,15,30,16.90
2016,06,16,15,31,16.80
2016,06,16,15,32,16.70
2016,06,16,15,33,16.70
2016,06,16,15,34,16.60
2016,06,16,15,35,16.60
2016,06,16,15,36,16.60
2016,06,16,15,37,16.60
2016,06,16,15,38,16.60
2016,06,16,15,39,16.50
2016,06,16,15,40,16.50
2016,06,16,15,41,16.40
2016,06,16,15,42,16.40
2016,06,16,15,43,16.30
2016,06,16,15,44,16.20
2016,06,16,15,45,16.10
2016,06,16,15,46,16.10
2016,06,16,15,47,16.10
2016,06,16,15,48,16.10
2016,06,16,15,49,16.10
2016,06,16,15,50,16.20
2016,06,16,15,51,16.20
2016,06,16,15,52,16.30
2016,06,16,15,53,16.40
2016,06,16,15,54,16.50
2016,06,16,15,55,16.50
2016,06,16,15,56,16.60
2016,06,16,15,57,16.70
2016,06,16,15,58,16.70
2016,06,16,15,59,16.70
2016,06,16,16,00,16.70
2016,06,16,16,01,16.70
2016,06,16,16,02,16.60
2016,06,16,16,03,16.60
2016,06,16,16,04,16.70
2016,06,16,16,05,16.70
2016,06,16,16,06,16.70
2016,06,16,16,07,16.80
2016,06,16,16,08,16.80
2016,06,16,16,09,16.80
2016,06,16,16,10,16.70
2016,06,16,16,11,16.70
2016,06,16,16,12,16.70
2016,06,16,16,13,16.70
2016,06,16,16,14,16.80
2016,06,16,16,15,16.90
2016,06,16,16,16,17.00
2016,06,16,16,17,17.10
2016,06,16,16,18,17.20
2016,06,16,16,19,17.30
2016,06,16,16,20,17.50
2016,06,16,16,21,17.60
2016,06,16,16,22,17.70
2016,06,16,16,23,17.70
2016,06,16,16,24,17.70
2016,06,16,16,25,17.70
2016,06,16,16,26,17.60
2016,06,16,16,27,17.60
2016,06,16,16,28,17.50
2016,06,16,16,29,17.30
2016,06,16,16,30,17.20
2016,06,16,16,31,17.10
2016,06,16,16,32,17.10
2016,06,16,16,33,17.20
2016,06,16,16,34,17.30
2016,06,16,16,35,17.30
2016,06,16,16,36,17.40
2016,06,16,16,37,17.40
2016,06,16,16,38,17.40
2016,06,16,16,39,17.50
2016,06,16,16,40,17.50
2016,06,16,16,41,17.60
2016,06,16,16,42,17.70
2016,06,16,16,43,17.70
2016,06,16,16,44,17.70
2016,06,16,16,45,17.70
2016,06,16,16,46,17.70
2016,06,16,16,47,17.70
2016,06,16,16,48,17.60
2016,06,16,16,49,17.50
2016,06,16,16,50,17.40
2016,06,16,16,51,17.40
2016,06,16,16,52,17.30
2016,06,16,16,53,17.40
2016,06,16,16,54,17.40
2016,06,16,16,55,17.50
2016,06,16,16,56,17.60
2016,06,16,16,57,17.60
2016,06,16,16,58,17.70
2016,06,16,16,59,17.70
2016,06,16,17,00,17.70
2016,06,16,17,01,17.80
2016,06,16,17,02,17.80
2016,06,16,17,03,17.80
2016,06,16,17,04,17.80
2016,06,16,17,05,17.80
2016,06,16,17,06,17.80
2016,06,16,17,07,17.90
2016,06,16,17,08,17.90
2016,06,16,17,09,17.90
2016,06,16,17,10,17.80
2016,06,16,17,11,17.80
2016,06,16,17,12,17.70
2016,06,16,17,13,17.80
2016,06,16,17,14,17.70
2016,06,16,17,15,17.70
2016,06,16,17,16,17.80
2016,06,16,17,17,17.80
2016,06,16,17,18,17.90
2016,06,16,17,19,17.90
2016,06,16,17,20,18.00
2016,06,16,17,21,18.00
2016,06,16,17,22,17.90
2016,06,16,17,23,17.90
2016,06,16,17,24,17.90
2016,06,16,17,25,17.90
2016,06,16,17,26,17.90
2016,06,16,17,27,17.90
2016,06,16,17,28,17.80
2016,06,16,17,29,17.80
2016,06,16,17,30,17.80
2016,06,16,17,31,17.80
2016,06,16,17,32,17.80
2016,06,16,17,33,17.80
2016,06,16,17,34,17.80
2016,06,16,17,35,17.90